owner,sensor,date,latitude,longitude,vertical_datum,wind_speed,wind_to_direction,wind_speed_of_gust,qcFlag 
DISL,ioos:station:DISL:MBLA:1,2010-07-01T00:00:00Z,30.4367,-88.0117,14.2,2.93,107.6,-9999.0,'1111122,1111122,1111122' 
DISL,ioos:station:DISL:MBLA:1,2010-07-01T00:30:00Z,30.4367,-88.0117,14.2,2.26,103.6,-9999.0,'1111122,1111122,1111122' 
DISL,ioos:station:DISL:MBLA:1,2010-07-01T01:00:00Z,30.4367,-88.0117,14.2,2.37,51.82,-9999.0,'1111122,1111122,1111122' 
DISL,ioos:station:DISL:MBLA:1,2010-07-01T01:30:00Z,30.4367,-88.0117,14.2,1.7,19.44,-9999.0,'1111122,1111122,1111122' 
DISL,ioos:station:DISL:MBLA:1,2010-07-01T02:00:00Z,30.4367,-88.0117,14.2,2.29,14.82,-9999.0,'1111122,1111122,1111122' 
DISL,ioos:station:DISL:MBLA:1,2010-07-01T02:30:00Z,30.4367,-88.0117,14.2,3.21,27.68,-9999.0,'1111122,1111122,1111122' 
DISL,ioos:station:DISL:MBLA:1,2010-07-01T03:00:00Z,30.4367,-88.0117,14.2,4.82,32.9,-9999.0,'1111122,1111122,1111122' 
DISL,ioos:station:DISL:MBLA:1,2010-07-01T03:30:00Z,30.4367,-88.0117,14.2,5.01,17.41,-9999.0,'1111122,1111122,1111122' 
DISL,ioos:station:DISL:MBLA:1,2010-07-01T04:00:00Z,30.4367,-88.0117,14.2,7.29,46.56,-9999.0,'1111122,1111122,1111122' 
DISL,ioos:station:DISL:MBLA:1,2010-07-01T04:30:00Z,30.4367,-88.0117,14.2,5.45,59.84,-9999.0,'1111122,1111122,1111122' 
DISL,ioos:station:DISL:MBLA:1,2010-07-01T05:00:00Z,30.4367,-88.0117,14.2,5.89,58.03,-9999.0,'1111122,1111122,1111122' 
DISL,ioos:station:DISL:MBLA:1,2010-07-01T05:30:00Z,30.4367,-88.0117,14.2,6.55,69.64,-9999.0,'1111122,1111122,1111122' 
DISL,ioos:station:DISL:MBLA:1,2010-07-01T06:00:00Z,30.4367,-88.0117,14.2,5.37,62.59,-9999.0,'1111122,1111122,1111122' 
DISL,ioos:station:DISL:MBLA:1,2010-07-01T06:30:00Z,30.4367,-88.0117,14.2,5.45,62.73,-9999.0,'1111122,1111122,1111122' 
DISL,ioos:station:DISL:MBLA:1,2010-07-01T07:00:00Z,30.4367,-88.0117,14.2,5.49,73.1,-9999.0,'1111122,1111122,1111122' 
DISL,ioos:station:DISL:MBLA:1,2010-07-01T07:30:00Z,30.4367,-88.0117,14.2,5.24,79.2,-9999.0,'1111122,1111122,1111122' 
DISL,ioos:station:DISL:MBLA:1,2010-07-01T08:00:00Z,30.4367,-88.0117,14.2,4.87,74.6,-9999.0,'1111122,1111122,1111122' 
DISL,ioos:station:DISL:MBLA:1,2010-07-01T08:30:00Z,30.4367,-88.0117,14.2,5.73,63.13,-9999.0,'1111122,1111122,1111122' 
DISL,ioos:station:DISL:MBLA:1,2010-07-01T09:00:00Z,30.4367,-88.0117,14.2,6.54,53.57,-9999.0,'1111122,1111122,1111122' 
DISL,ioos:station:DISL:MBLA:1,2010-07-01T09:30:00Z,30.4367,-88.0117,14.2,6.67,46.08,-9999.0,'1111122,1111122,1111122' 
DISL,ioos:station:DISL:MBLA:1,2010-07-01T10:00:00Z,30.4367,-88.0117,14.2,5.83,52.57,-9999.0,'1111122,1111122,1111122' 
DISL,ioos:station:DISL:MBLA:1,2010-07-01T10:30:00Z,30.4367,-88.0117,14.2,5.42,56.34,-9999.0,'1111122,1111122,1111122' 
DISL,ioos:station:DISL:MBLA:1,2010-07-01T11:00:00Z,30.4367,-88.0117,14.2,5.27,56.35,-9999.0,'1111122,1111122,1111122' 
DISL,ioos:station:DISL:MBLA:1,2010-07-01T11:30:00Z,30.4367,-88.0117,14.2,4.84,56.47,-9999.0,'1111122,1111122,1111122' 
DISL,ioos:station:DISL:MBLA:1,2010-07-01T12:00:00Z,30.4367,-88.0117,14.2,4.84,63.95,-9999.0,'1111122,1111122,1111122' 
DISL,ioos:station:DISL:MBLA:1,2010-07-01T12:30:00Z,30.4367,-88.0117,14.2,5.57,84.0,-9999.0,'1111122,1111122,1111122' 
DISL,ioos:station:DISL:MBLA:1,2010-07-01T13:00:00Z,30.4367,-88.0117,14.2,6.72,105.6,-9999.0,'1111122,1111122,1111122' 
DISL,ioos:station:DISL:MBLA:1,2010-07-01T13:30:00Z,30.4367,-88.0117,14.2,4.39,117.4,-9999.0,'1111122,1111122,1111122' 
DISL,ioos:station:DISL:MBLA:1,2010-07-01T14:00:00Z,30.4367,-88.0117,14.2,10.58,184.0,-9999.0,'1111122,1111122,1111122' 
DISL,ioos:station:DISL:MBLA:1,2010-07-01T14:30:00Z,30.4367,-88.0117,14.2,8.18,192.7,-9999.0,'1111122,1111122,1111122' 
DISL,ioos:station:DISL:MBLA:1,2010-07-01T15:00:00Z,30.4367,-88.0117,14.2,7.13,203.1,-9999.0,'1111122,1111122,1111122' 
DISL,ioos:station:DISL:MBLA:1,2010-07-01T15:30:00Z,30.4367,-88.0117,14.2,4.79,207.4,-9999.0,'1111122,1111122,1111122' 
DISL,ioos:station:DISL:MBLA:1,2010-07-01T16:00:00Z,30.4367,-88.0117,14.2,3.94,214.9,-9999.0,'1111122,1111122,1111122' 
DISL,ioos:station:DISL:MBLA:1,2010-07-01T16:30:00Z,30.4367,-88.0117,14.2,3.21,264.2,-9999.0,'1111122,1111122,1111122' 
DISL,ioos:station:DISL:MBLA:1,2010-07-01T17:00:00Z,30.4367,-88.0117,14.2,2.83,277.8,-9999.0,'1111122,1111122,1111122' 
DISL,ioos:station:DISL:MBLA:1,2010-07-01T17:30:00Z,30.4367,-88.0117,14.2,1.79,268.9,-9999.0,'1111122,1111122,1111122' 
DISL,ioos:station:DISL:MBLA:1,2010-07-01T18:00:00Z,30.4367,-88.0117,14.2,0.84,296.8,-9999.0,'1111122,1111122,1111122' 
DISL,ioos:station:DISL:MBLA:1,2010-07-01T18:30:00Z,30.4367,-88.0117,14.2,0.69,5.774,-9999.0,'1111122,1111122,1111122' 
DISL,ioos:station:DISL:MBLA:1,2010-07-01T19:00:00Z,30.4367,-88.0117,14.2,0.86,4.037,-9999.0,'1111122,1111122,1111122' 
DISL,ioos:station:DISL:MBLA:1,2010-07-01T19:30:00Z,30.4367,-88.0117,14.2,0.18,58.15,-9999.0,'1111122,1111122,1111122' 
DISL,ioos:station:DISL:MBLA:1,2010-07-01T20:00:00Z,30.4367,-88.0117,14.2,1.03,53.16,-9999.0,'1111122,1111122,1111122' 
DISL,ioos:station:DISL:MBLA:1,2010-07-01T20:30:00Z,30.4367,-88.0117,14.2,1.6,38.48,-9999.0,'1111122,1111122,1111122' 
DISL,ioos:station:DISL:MBLA:1,2010-07-01T21:00:00Z,30.4367,-88.0117,14.2,1.56,22.28,-9999.0,'1111122,1111122,1111122' 
DISL,ioos:station:DISL:MBLA:1,2010-07-01T21:30:00Z,30.4367,-88.0117,14.2,3.02,17.34,-9999.0,'1111122,1111122,1111122' 
DISL,ioos:station:DISL:MBLA:1,2010-07-01T22:00:00Z,30.4367,-88.0117,14.2,2.39,22.38,-9999.0,'1111122,1111122,1111122' 
DISL,ioos:station:DISL:MBLA:1,2010-07-01T22:30:00Z,30.4367,-88.0117,14.2,1.92,3.12,-9999.0,'1111122,1111122,1111122' 
DISL,ioos:station:DISL:MBLA:1,2010-07-01T23:00:00Z,30.4367,-88.0117,14.2,3.4,20.3,-9999.0,'1111122,1111122,1111122' 
DISL,ioos:station:DISL:MBLA:1,2010-07-01T23:30:00Z,30.4367,-88.0117,14.2,1.83,0.158,-9999.0,'1111122,1111122,1111122' 
DISL,ioos:station:DISL:MBLA:1,2010-07-02T00:00:00Z,30.4367,-88.0117,14.2,2.12,347.8,-9999.0,'1111122,1111122,1111122' 
DISL,ioos:station:DISL:MBLA:1,2010-07-02T00:30:00Z,30.4367,-88.0117,14.2,2.11,294.1,-9999.0,'1111122,1111122,1111122' 
DISL,ioos:station:DISL:MBLA:1,2010-07-02T01:00:00Z,30.4367,-88.0117,14.2,4.72,278.8,-9999.0,'1111122,1111122,1111122' 
DISL,ioos:station:DISL:MBLA:1,2010-07-02T01:30:00Z,30.4367,-88.0117,14.2,3.31,338.8,-9999.0,'1111122,1111122,1111122' 
DISL,ioos:station:DISL:MBLA:1,2010-07-02T02:00:00Z,30.4367,-88.0117,14.2,2.82,342.9,-9999.0,'1111122,1111122,1111122' 
DISL,ioos:station:DISL:MBLA:1,2010-07-02T02:30:00Z,30.4367,-88.0117,14.2,1.4,345.8,-9999.0,'1111122,1111122,1111122' 
DISL,ioos:station:DISL:MBLA:1,2010-07-02T03:00:00Z,30.4367,-88.0117,14.2,2.11,349.4,-9999.0,'1111122,1111122,1111122' 
DISL,ioos:station:DISL:MBLA:1,2010-07-02T03:30:00Z,30.4367,-88.0117,14.2,3.29,349.5,-9999.0,'1111122,1111122,1111122' 
DISL,ioos:station:DISL:MBLA:1,2010-07-02T04:00:00Z,30.4367,-88.0117,14.2,4.38,9.84,-9999.0,'1111122,1111122,1111122' 
DISL,ioos:station:DISL:MBLA:1,2010-07-02T04:30:00Z,30.4367,-88.0117,14.2,3.03,1.287,-9999.0,'1111122,1111122,1111122' 
DISL,ioos:station:DISL:MBLA:1,2010-07-02T05:00:00Z,30.4367,-88.0117,14.2,3.4,34.64,-9999.0,'1111122,1111122,1111122' 
DISL,ioos:station:DISL:MBLA:1,2010-07-02T05:30:00Z,30.4367,-88.0117,14.2,3.62,41.08,-9999.0,'1111122,1111122,1111122' 
DISL,ioos:station:DISL:MBLA:1,2010-07-02T06:00:00Z,30.4367,-88.0117,14.2,4.3,48.98,-9999.0,'1111122,1111122,1111122' 
DISL,ioos:station:DISL:MBLA:1,2010-07-02T06:30:00Z,30.4367,-88.0117,14.2,2.63,54.83,-9999.0,'1111122,1111122,1111122' 
DISL,ioos:station:DISL:MBLA:1,2010-07-02T07:00:00Z,30.4367,-88.0117,14.2,1.22,24.95,-9999.0,'1111122,1111122,1111122' 
DISL,ioos:station:DISL:MBLA:1,2010-07-02T07:30:00Z,30.4367,-88.0117,14.2,0.15,109.3,-9999.0,'1111122,1111122,1111122' 
DISL,ioos:station:DISL:MBLA:1,2010-07-02T08:00:00Z,30.4367,-88.0117,14.2,0.84,6.569,-9999.0,'1111122,1111122,1111122' 
DISL,ioos:station:DISL:MBLA:1,2010-07-02T08:30:00Z,30.4367,-88.0117,14.2,4.51,336.6,-9999.0,'1111122,1111122,1111122' 
DISL,ioos:station:DISL:MBLA:1,2010-07-02T09:00:00Z,30.4367,-88.0117,14.2,3.39,349.7,-9999.0,'1111122,1111122,1111122' 
DISL,ioos:station:DISL:MBLA:1,2010-07-02T09:30:00Z,30.4367,-88.0117,14.2,5.81,27.8,-9999.0,'1111122,1111122,1111122' 
DISL,ioos:station:DISL:MBLA:1,2010-07-02T10:00:00Z,30.4367,-88.0117,14.2,3.34,9.67,-9999.0,'1111122,1111122,1111122' 
DISL,ioos:station:DISL:MBLA:1,2010-07-02T10:30:00Z,30.4367,-88.0117,14.2,2.75,359.4,-9999.0,'1111122,1111122,1111122' 
DISL,ioos:station:DISL:MBLA:1,2010-07-02T11:00:00Z,30.4367,-88.0117,14.2,3.47,4.029,-9999.0,'1111122,1111122,1111122' 
DISL,ioos:station:DISL:MBLA:1,2010-07-02T11:30:00Z,30.4367,-88.0117,14.2,4.11,1.421,-9999.0,'1111122,1111122,1111122' 
DISL,ioos:station:DISL:MBLA:1,2010-07-02T12:00:00Z,30.4367,-88.0117,14.2,5.57,13.47,-9999.0,'1111122,1111122,1111122' 
DISL,ioos:station:DISL:MBLA:1,2010-07-02T12:30:00Z,30.4367,-88.0117,14.2,4.84,15.41,-9999.0,'1111122,1111122,1111122' 
DISL,ioos:station:DISL:MBLA:1,2010-07-02T13:00:00Z,30.4367,-88.0117,14.2,4.97,17.37,-9999.0,'1111122,1111122,1111122' 
DISL,ioos:station:DISL:MBLA:1,2010-07-02T13:30:00Z,30.4367,-88.0117,14.2,5.19,15.19,-9999.0,'1111122,1111122,1111122' 
DISL,ioos:station:DISL:MBLA:1,2010-07-02T14:00:00Z,30.4367,-88.0117,14.2,4.49,17.49,-9999.0,'1111122,1111122,1111122' 
DISL,ioos:station:DISL:MBLA:1,2010-07-02T14:30:00Z,30.4367,-88.0117,14.2,3.34,11.66,-9999.0,'1111122,1111122,1111122' 
DISL,ioos:station:DISL:MBLA:1,2010-07-02T15:00:00Z,30.4367,-88.0117,14.2,3.18,1.426,-9999.0,'1111122,1111122,1111122' 
DISL,ioos:station:DISL:MBLA:1,2010-07-02T15:30:00Z,30.4367,-88.0117,14.2,3.49,5.25,-9999.0,'1111122,1111122,1111122' 
DISL,ioos:station:DISL:MBLA:1,2010-07-02T16:00:00Z,30.4367,-88.0117,14.2,4.34,358.9,-9999.0,'1111122,1111122,1111122' 
DISL,ioos:station:DISL:MBLA:1,2010-07-02T16:30:00Z,30.4367,-88.0117,14.2,3.71,356.3,-9999.0,'1111122,1111122,1111122' 
DISL,ioos:station:DISL:MBLA:1,2010-07-02T17:00:00Z,30.4367,-88.0117,14.2,2.9,1.988,-9999.0,'1111122,1111122,1111122' 
DISL,ioos:station:DISL:MBLA:1,2010-07-02T17:30:00Z,30.4367,-88.0117,14.2,2.17,13.76,-9999.0,'1111122,1111122,1111122' 
DISL,ioos:station:DISL:MBLA:1,2010-07-02T18:00:00Z,30.4367,-88.0117,14.2,2.38,359.3,-9999.0,'1111122,1111122,1111122' 
DISL,ioos:station:DISL:MBLA:1,2010-07-02T18:30:00Z,30.4367,-88.0117,14.2,1.92,171.4,-9999.0,'1111122,1111122,1111122' 
DISL,ioos:station:DISL:MBLA:1,2010-07-02T19:00:00Z,30.4367,-88.0117,14.2,5.99,158.0,-9999.0,'1111122,1111122,1111122' 
DISL,ioos:station:DISL:MBLA:1,2010-07-02T19:30:00Z,30.4367,-88.0117,14.2,5.0,161.8,-9999.0,'1111122,1111122,1111122' 
DISL,ioos:station:DISL:MBLA:1,2010-07-02T20:00:00Z,30.4367,-88.0117,14.2,4.47,171.6,-9999.0,'1111122,1111122,1111122' 
DISL,ioos:station:DISL:MBLA:1,2010-07-02T20:30:00Z,30.4367,-88.0117,14.2,4.88,168.7,-9999.0,'1111122,1111122,1111122' 
DISL,ioos:station:DISL:MBLA:1,2010-07-02T21:00:00Z,30.4367,-88.0117,14.2,5.35,159.6,-9999.0,'1111122,1111122,1111122' 
DISL,ioos:station:DISL:MBLA:1,2010-07-02T21:30:00Z,30.4367,-88.0117,14.2,5.81,149.4,-9999.0,'1111122,1111122,1111122' 
DISL,ioos:station:DISL:MBLA:1,2010-07-02T22:00:00Z,30.4367,-88.0117,14.2,5.75,147.5,-9999.0,'1111122,1111122,1111122' 
DISL,ioos:station:DISL:MBLA:1,2010-07-02T22:30:00Z,30.4367,-88.0117,14.2,5.38,171.0,-9999.0,'1111122,1111122,1111122' 
DISL,ioos:station:DISL:MBLA:1,2010-07-02T23:00:00Z,30.4367,-88.0117,14.2,5.01,180.2,-9999.0,'1111122,1111122,1111122' 
DISL,ioos:station:DISL:MBLA:1,2010-07-02T23:30:00Z,30.4367,-88.0117,14.2,3.8,199.9,-9999.0,'1111122,1111122,1111122' 
DISL,ioos:station:DISL:MBLA:1,2010-07-03T00:00:00Z,30.4367,-88.0117,14.2,3.45,198.9,-9999.0,'1111122,1111122,1111122' 
DISL,ioos:station:DISL:MBLA:1,2010-07-03T00:30:00Z,30.4367,-88.0117,14.2,3.08,174.6,-9999.0,'1111122,1111122,1111122' 
DISL,ioos:station:DISL:MBLA:1,2010-07-03T01:00:00Z,30.4367,-88.0117,14.2,4.0,181.3,-9999.0,'1111122,1111122,1111122' 
DISL,ioos:station:DISL:MBLA:1,2010-07-03T01:30:00Z,30.4367,-88.0117,14.2,3.4,173.5,-9999.0,'1111122,1111122,1111122' 
DISL,ioos:station:DISL:MBLA:1,2010-07-03T02:00:00Z,30.4367,-88.0117,14.2,3.49,175.2,-9999.0,'1111122,1111122,1111122' 
DISL,ioos:station:DISL:MBLA:1,2010-07-03T02:30:00Z,30.4367,-88.0117,14.2,3.1,181.7,-9999.0,'1111122,1111122,1111122' 
DISL,ioos:station:DISL:MBLA:1,2010-07-03T03:00:00Z,30.4367,-88.0117,14.2,2.58,215.8,-9999.0,'1111122,1111122,1111122' 
DISL,ioos:station:DISL:MBLA:1,2010-07-03T03:30:00Z,30.4367,-88.0117,14.2,6.57,317.7,-9999.0,'1111122,1111122,1111122' 
DISL,ioos:station:DISL:MBLA:1,2010-07-03T04:00:00Z,30.4367,-88.0117,14.2,5.69,318.2,-9999.0,'1111122,1111122,1111122' 
DISL,ioos:station:DISL:MBLA:1,2010-07-03T04:30:00Z,30.4367,-88.0117,14.2,5.44,46.49,-9999.0,'1111122,1111122,1111122' 
DISL,ioos:station:DISL:MBLA:1,2010-07-03T05:00:00Z,30.4367,-88.0117,14.2,3.6,60.75,-9999.0,'1111122,1111122,1111122' 
DISL,ioos:station:DISL:MBLA:1,2010-07-03T05:30:00Z,30.4367,-88.0117,14.2,3.93,43.27,-9999.0,'1111122,1111122,1111122' 
DISL,ioos:station:DISL:MBLA:1,2010-07-03T06:00:00Z,30.4367,-88.0117,14.2,5.32,61.05,-9999.0,'1111122,1111122,1111122' 
DISL,ioos:station:DISL:MBLA:1,2010-07-03T06:30:00Z,30.4367,-88.0117,14.2,8.62,70.7,-9999.0,'1111122,1111122,1111122' 
DISL,ioos:station:DISL:MBLA:1,2010-07-03T07:00:00Z,30.4367,-88.0117,14.2,8.86,74.9,-9999.0,'1111122,1111122,1111122' 
DISL,ioos:station:DISL:MBLA:1,2010-07-03T07:30:00Z,30.4367,-88.0117,14.2,9.8,80.7,-9999.0,'1111122,1111122,1111122' 
DISL,ioos:station:DISL:MBLA:1,2010-07-03T08:00:00Z,30.4367,-88.0117,14.2,9.16,74.9,-9999.0,'1111122,1111122,1111122' 
DISL,ioos:station:DISL:MBLA:1,2010-07-03T08:30:00Z,30.4367,-88.0117,14.2,9.71,72.3,-9999.0,'1111122,1111122,1111122' 
DISL,ioos:station:DISL:MBLA:1,2010-07-03T09:00:00Z,30.4367,-88.0117,14.2,9.23,67.87,-9999.0,'1111122,1111122,1111122' 
DISL,ioos:station:DISL:MBLA:1,2010-07-03T09:30:00Z,30.4367,-88.0117,14.2,9.98,76.4,-9999.0,'1111122,1111122,1111122' 
DISL,ioos:station:DISL:MBLA:1,2010-07-03T10:00:00Z,30.4367,-88.0117,14.2,9.38,79.0,-9999.0,'1111122,1111122,1111122' 
DISL,ioos:station:DISL:MBLA:1,2010-07-03T10:30:00Z,30.4367,-88.0117,14.2,9.89,74.4,-9999.0,'1111122,1111122,1111122' 
DISL,ioos:station:DISL:MBLA:1,2010-07-03T11:00:00Z,30.4367,-88.0117,14.2,9.63,70.8,-9999.0,'1111122,1111122,1111122' 
DISL,ioos:station:DISL:MBLA:1,2010-07-03T11:30:00Z,30.4367,-88.0117,14.2,9.96,68.89,-9999.0,'1111122,1111122,1111122' 
DISL,ioos:station:DISL:MBLA:1,2010-07-03T12:00:00Z,30.4367,-88.0117,14.2,9.55,68.21,-9999.0,'1111122,1111122,1111122' 
DISL,ioos:station:DISL:MBLA:1,2010-07-03T12:30:00Z,30.4367,-88.0117,14.2,9.09,62.25,-9999.0,'1111122,1111122,1111122' 
DISL,ioos:station:DISL:MBLA:1,2010-07-03T13:00:00Z,30.4367,-88.0117,14.2,9.5,71.5,-9999.0,'1111122,1111122,1111122' 
DISL,ioos:station:DISL:MBLA:1,2010-07-03T13:30:00Z,30.4367,-88.0117,14.2,8.53,79.5,-9999.0,'1111122,1111122,1111122' 
DISL,ioos:station:DISL:MBLA:1,2010-07-03T14:00:00Z,30.4367,-88.0117,14.2,8.02,76.6,-9999.0,'1111122,1111122,1111122' 
DISL,ioos:station:DISL:MBLA:1,2010-07-03T14:30:00Z,30.4367,-88.0117,14.2,7.47,75.5,-9999.0,'1111122,1111122,1111122' 
DISL,ioos:station:DISL:MBLA:1,2010-07-03T15:00:00Z,30.4367,-88.0117,14.2,7.26,82.7,-9999.0,'1111122,1111122,1111122' 
DISL,ioos:station:DISL:MBLA:1,2010-07-03T15:30:00Z,30.4367,-88.0117,14.2,5.8,74.0,-9999.0,'1111122,1111122,1111122' 
DISL,ioos:station:DISL:MBLA:1,2010-07-03T16:00:00Z,30.4367,-88.0117,14.2,6.52,78.4,-9999.0,'1111122,1111122,1111122' 
DISL,ioos:station:DISL:MBLA:1,2010-07-03T16:30:00Z,30.4367,-88.0117,14.2,6.02,67.8,-9999.0,'1111122,1111122,1111122' 
DISL,ioos:station:DISL:MBLA:1,2010-07-03T17:00:00Z,30.4367,-88.0117,14.2,6.57,82.1,-9999.0,'1111122,1111122,1111122' 
DISL,ioos:station:DISL:MBLA:1,2010-07-03T17:30:00Z,30.4367,-88.0117,14.2,7.32,81.6,-9999.0,'1111122,1111122,1111122' 
DISL,ioos:station:DISL:MBLA:1,2010-07-03T18:00:00Z,30.4367,-88.0117,14.2,5.75,73.5,-9999.0,'1111122,1111122,1111122' 
DISL,ioos:station:DISL:MBLA:1,2010-07-03T18:30:00Z,30.4367,-88.0117,14.2,6.78,100.0,-9999.0,'1111122,1111122,1111122' 
DISL,ioos:station:DISL:MBLA:1,2010-07-03T19:00:00Z,30.4367,-88.0117,14.2,6.63,96.5,-9999.0,'1111122,1111122,1111122' 
DISL,ioos:station:DISL:MBLA:1,2010-07-03T19:30:00Z,30.4367,-88.0117,14.2,7.25,87.0,-9999.0,'1111122,1111122,1111122' 
DISL,ioos:station:DISL:MBLA:1,2010-07-03T20:00:00Z,30.4367,-88.0117,14.2,5.68,82.3,-9999.0,'1111122,1111122,1111122' 
DISL,ioos:station:DISL:MBLA:1,2010-07-03T20:30:00Z,30.4367,-88.0117,14.2,5.93,74.2,-9999.0,'1111122,1111122,1111122' 
DISL,ioos:station:DISL:MBLA:1,2010-07-03T21:00:00Z,30.4367,-88.0117,14.2,5.97,77.3,-9999.0,'1111122,1111122,1111122' 
DISL,ioos:station:DISL:MBLA:1,2010-07-03T21:30:00Z,30.4367,-88.0117,14.2,3.89,114.1,-9999.0,'1111122,1111122,1111122' 
DISL,ioos:station:DISL:MBLA:1,2010-07-03T22:00:00Z,30.4367,-88.0117,14.2,5.73,124.4,-9999.0,'1111122,1111122,1111122' 
DISL,ioos:station:DISL:MBLA:1,2010-07-03T22:30:00Z,30.4367,-88.0117,14.2,5.38,124.3,-9999.0,'1111122,1111122,1111122' 
DISL,ioos:station:DISL:MBLA:1,2010-07-03T23:00:00Z,30.4367,-88.0117,14.2,5.97,133.5,-9999.0,'1111122,1111122,1111122' 
DISL,ioos:station:DISL:MBLA:1,2010-07-03T23:30:00Z,30.4367,-88.0117,14.2,5.0,124.9,-9999.0,'1111122,1111122,1111122' 
DISL,ioos:station:DISL:MBLA:1,2010-07-04T00:00:00Z,30.4367,-88.0117,14.2,6.21,120.9,-9999.0,'1111122,1111122,1111122' 
DISL,ioos:station:DISL:MBLA:1,2010-07-04T00:30:00Z,30.4367,-88.0117,14.2,8.05,115.6,-9999.0,'1111122,1111122,1111122' 
DISL,ioos:station:DISL:MBLA:1,2010-07-04T01:00:00Z,30.4367,-88.0117,14.2,8.24,109.7,-9999.0,'1111122,1111122,1111122' 
DISL,ioos:station:DISL:MBLA:1,2010-07-04T01:30:00Z,30.4367,-88.0117,14.2,7.11,112.8,-9999.0,'1111122,1111122,1111122' 
DISL,ioos:station:DISL:MBLA:1,2010-07-04T02:00:00Z,30.4367,-88.0117,14.2,6.14,107.5,-9999.0,'1111122,1111122,1111122' 
DISL,ioos:station:DISL:MBLA:1,2010-07-04T02:30:00Z,30.4367,-88.0117,14.2,5.94,94.7,-9999.0,'1111122,1111122,1111122' 
DISL,ioos:station:DISL:MBLA:1,2010-07-04T03:00:00Z,30.4367,-88.0117,14.2,5.86,53.37,-9999.0,'1111122,1111122,1111122' 
DISL,ioos:station:DISL:MBLA:1,2010-07-04T03:30:00Z,30.4367,-88.0117,14.2,7.57,57.98,-9999.0,'1111122,1111122,1111122' 
DISL,ioos:station:DISL:MBLA:1,2010-07-04T04:00:00Z,30.4367,-88.0117,14.2,8.63,62.78,-9999.0,'1111122,1111122,1111122' 
DISL,ioos:station:DISL:MBLA:1,2010-07-04T04:30:00Z,30.4367,-88.0117,14.2,8.09,71.7,-9999.0,'1111122,1111122,1111122' 
DISL,ioos:station:DISL:MBLA:1,2010-07-04T05:00:00Z,30.4367,-88.0117,14.2,8.18,69.11,-9999.0,'1111122,1111122,1111122' 
DISL,ioos:station:DISL:MBLA:1,2010-07-04T05:30:00Z,30.4367,-88.0117,14.2,8.72,71.2,-9999.0,'1111122,1111122,1111122' 
DISL,ioos:station:DISL:MBLA:1,2010-07-04T06:00:00Z,30.4367,-88.0117,14.2,9.1,69.44,-9999.0,'1111122,1111122,1111122' 
DISL,ioos:station:DISL:MBLA:1,2010-07-04T06:30:00Z,30.4367,-88.0117,14.2,9.14,72.9,-9999.0,'1111122,1111122,1111122' 
DISL,ioos:station:DISL:MBLA:1,2010-07-04T07:00:00Z,30.4367,-88.0117,14.2,8.97,73.3,-9999.0,'1111122,1111122,1111122' 
DISL,ioos:station:DISL:MBLA:1,2010-07-04T07:30:00Z,30.4367,-88.0117,14.2,8.87,73.5,-9999.0,'1111122,1111122,1111122' 
DISL,ioos:station:DISL:MBLA:1,2010-07-04T08:00:00Z,30.4367,-88.0117,14.2,8.61,74.2,-9999.0,'1111122,1111122,1111122' 
DISL,ioos:station:DISL:MBLA:1,2010-07-04T08:30:00Z,30.4367,-88.0117,14.2,8.38,69.49,-9999.0,'1111122,1111122,1111122' 
DISL,ioos:station:DISL:MBLA:1,2010-07-04T09:00:00Z,30.4367,-88.0117,14.2,7.97,74.2,-9999.0,'1111122,1111122,1111122' 
DISL,ioos:station:DISL:MBLA:1,2010-07-04T09:30:00Z,30.4367,-88.0117,14.2,8.29,76.5,-9999.0,'1111122,1111122,1111122' 
DISL,ioos:station:DISL:MBLA:1,2010-07-04T10:00:00Z,30.4367,-88.0117,14.2,8.4,71.6,-9999.0,'1111122,1111122,1111122' 
DISL,ioos:station:DISL:MBLA:1,2010-07-04T10:30:00Z,30.4367,-88.0117,14.2,8.77,74.7,-9999.0,'1111122,1111122,1111122' 
DISL,ioos:station:DISL:MBLA:1,2010-07-04T11:00:00Z,30.4367,-88.0117,14.2,8.47,72.0,-9999.0,'1111122,1111122,1111122' 
DISL,ioos:station:DISL:MBLA:1,2010-07-04T11:30:00Z,30.4367,-88.0117,14.2,8.98,70.3,-9999.0,'1111122,1111122,1111122' 
DISL,ioos:station:DISL:MBLA:1,2010-07-04T12:00:00Z,30.4367,-88.0117,14.2,9.4,72.2,-9999.0,'1111122,1111122,1111122' 
DISL,ioos:station:DISL:MBLA:1,2010-07-04T12:30:00Z,30.4367,-88.0117,14.2,8.75,77.1,-9999.0,'1111122,1111122,1111122' 
DISL,ioos:station:DISL:MBLA:1,2010-07-04T13:00:00Z,30.4367,-88.0117,14.2,7.19,67.99,-9999.0,'1111122,1111122,1111122' 
DISL,ioos:station:DISL:MBLA:1,2010-07-04T13:30:00Z,30.4367,-88.0117,14.2,6.46,66.41,-9999.0,'1111122,1111122,1111122' 
DISL,ioos:station:DISL:MBLA:1,2010-07-04T14:00:00Z,30.4367,-88.0117,14.2,6.75,76.2,-9999.0,'1111122,1111122,1111122' 
DISL,ioos:station:DISL:MBLA:1,2010-07-04T14:30:00Z,30.4367,-88.0117,14.2,6.64,71.0,-9999.0,'1111122,1111122,1111122' 
DISL,ioos:station:DISL:MBLA:1,2010-07-04T15:00:00Z,30.4367,-88.0117,14.2,6.47,76.9,-9999.0,'1111122,1111122,1111122' 
DISL,ioos:station:DISL:MBLA:1,2010-07-04T15:30:00Z,30.4367,-88.0117,14.2,5.35,83.2,-9999.0,'1111122,1111122,1111122' 
DISL,ioos:station:DISL:MBLA:1,2010-07-04T16:00:00Z,30.4367,-88.0117,14.2,5.4,75.8,-9999.0,'1111122,1111122,1111122' 
DISL,ioos:station:DISL:MBLA:1,2010-07-04T16:30:00Z,30.4367,-88.0117,14.2,5.54,79.6,-9999.0,'1111122,1111122,1111122' 
DISL,ioos:station:DISL:MBLA:1,2010-07-04T17:00:00Z,30.4367,-88.0117,14.2,6.02,82.6,-9999.0,'1111122,1111122,1111122' 
DISL,ioos:station:DISL:MBLA:1,2010-07-04T17:30:00Z,30.4367,-88.0117,14.2,5.56,96.7,-9999.0,'1111122,1111122,1111122' 
DISL,ioos:station:DISL:MBLA:1,2010-07-04T18:00:00Z,30.4367,-88.0117,14.2,6.14,101.1,-9999.0,'1111122,1111122,1111122' 
DISL,ioos:station:DISL:MBLA:1,2010-07-04T18:30:00Z,30.4367,-88.0117,14.2,6.86,84.2,-9999.0,'1111122,1111122,1111122' 
DISL,ioos:station:DISL:MBLA:1,2010-07-04T19:00:00Z,30.4367,-88.0117,14.2,5.77,106.5,-9999.0,'1111122,1111122,1111122' 
DISL,ioos:station:DISL:MBLA:1,2010-07-04T19:30:00Z,30.4367,-88.0117,14.2,5.54,99.6,-9999.0,'1111122,1111122,1111122' 
DISL,ioos:station:DISL:MBLA:1,2010-07-04T20:00:00Z,30.4367,-88.0117,14.2,4.63,112.8,-9999.0,'1111122,1111122,1111122' 
DISL,ioos:station:DISL:MBLA:1,2010-07-04T20:30:00Z,30.4367,-88.0117,14.2,4.67,125.3,-9999.0,'1111122,1111122,1111122' 
DISL,ioos:station:DISL:MBLA:1,2010-07-04T21:00:00Z,30.4367,-88.0117,14.2,7.16,130.5,-9999.0,'1111122,1111122,1111122' 
DISL,ioos:station:DISL:MBLA:1,2010-07-04T21:30:00Z,30.4367,-88.0117,14.2,6.2,135.9,-9999.0,'1111122,1111122,1111122' 
DISL,ioos:station:DISL:MBLA:1,2010-07-04T22:00:00Z,30.4367,-88.0117,14.2,6.42,135.1,-9999.0,'1111122,1111122,1111122' 
DISL,ioos:station:DISL:MBLA:1,2010-07-04T22:30:00Z,30.4367,-88.0117,14.2,8.2,124.9,-9999.0,'1111122,1111122,1111122' 
DISL,ioos:station:DISL:MBLA:1,2010-07-04T23:00:00Z,30.4367,-88.0117,14.2,8.46,121.7,-9999.0,'1111122,1111122,1111122' 
DISL,ioos:station:DISL:MBLA:1,2010-07-04T23:30:00Z,30.4367,-88.0117,14.2,9.92,120.0,-9999.0,'1111122,1111122,1111122' 
DISL,ioos:station:DISL:MBLA:1,2010-07-05T00:00:00Z,30.4367,-88.0117,14.2,10.15,107.3,-9999.0,'1111122,1111122,1111122' 
DISL,ioos:station:DISL:MBLA:1,2010-07-05T00:30:00Z,30.4367,-88.0117,14.2,10.63,108.6,-9999.0,'1111122,1111122,1111122' 
DISL,ioos:station:DISL:MBLA:1,2010-07-05T01:00:00Z,30.4367,-88.0117,14.2,9.98,103.8,-9999.0,'1111122,1111122,1111122' 
DISL,ioos:station:DISL:MBLA:1,2010-07-05T01:30:00Z,30.4367,-88.0117,14.2,9.17,97.5,-9999.0,'1111122,1111122,1111122' 
DISL,ioos:station:DISL:MBLA:1,2010-07-05T02:00:00Z,30.4367,-88.0117,14.2,8.96,93.9,-9999.0,'1111122,1111122,1111122' 
DISL,ioos:station:DISL:MBLA:1,2010-07-05T02:30:00Z,30.4367,-88.0117,14.2,7.45,85.6,-9999.0,'1111122,1111122,1111122' 
DISL,ioos:station:DISL:MBLA:1,2010-07-05T03:00:00Z,30.4367,-88.0117,14.2,8.19,92.3,-9999.0,'1111122,1111122,1111122' 
DISL,ioos:station:DISL:MBLA:1,2010-07-05T03:30:00Z,30.4367,-88.0117,14.2,6.69,90.9,-9999.0,'1111122,1111122,1111122' 
DISL,ioos:station:DISL:MBLA:1,2010-07-05T04:00:00Z,30.4367,-88.0117,14.2,7.26,99.0,-9999.0,'1111122,1111122,1111122' 